カタログに戻る

OPS 0856 DEB

LostPO
NORAD 25932·DEBRIS·🇺🇸 United States

打ち上げ Aug 19, 1966 から Vandenberg Space Force Base

Loading…

次のパス (今後24時間)

TLE

古いSource: Space-Track

元期: Mar 17, 2024, 05:51 UTC

1 25932U 66077Y   24077.24409860  .00019619  00000-0  57878+0 0  9990
2 25932  88.4893  14.9499 1960201 106.7780 275.6401  9.17427422813406

AllMySatでOPS 0856 DEBをリアルタイム追跡

Download on the App Store